XAA538 BIRK-LFPB

Flight info

Callsign XAA538
Flight time N/A
Altitude 45000
Route METIL DCT 60N015W DCT GOMUP/N0418F450 DCT DONIB DCT SOSIM L15 HON UL612 WOD UM605 PETAX UZ296 VELOL
Aircraft C680/M-SDFGHRWY/SB1

Departure

Time 2026-04-25 18:17
Airport Reykjavík Domestic Airport (BIRK)

Arrival

Time N/A
Airport Paris-Le Bourget International Airport (LFPB)
Time Latitude Longitude Altitude Speed Heading
2026-04-25 17:57 64.13087 -21.93447 42 ft 0 kts
2026-04-25 18:15 64.13092 -21.93449 42 ft 3 kts 346°
2026-04-25 18:15 64.13131 -21.93532 42 ft 9 kts 321°
2026-04-25 18:16 64.13204 -21.93566 43 ft 16 kts 357°
2026-04-25 18:16 64.13348 -21.93593 38 ft 25 kts 355°
2026-04-25 18:16 64.13625 -21.93801 27 ft 19 kts 308°
2026-04-25 18:17 64.13613 -21.93892 29 ft 10 kts 176°
2026-04-25 18:17 64.13334 -21.93838 40 ft 78 kts 175°
2026-04-25 18:17 64.12588 -21.93700 352 ft 127 kts 176°
2026-04-25 18:17 64.11605 -21.93546 1199 ft 153 kts 175°
2026-04-25 18:18 64.10473 -21.93434 2265 ft 171 kts 176°
2026-04-25 18:18 64.09249 -21.93189 3309 ft 190 kts 173°
2026-04-25 18:18 64.07981 -21.91727 4042 ft 227 kts 140°
2026-04-25 18:18 64.06994 -21.88576 4898 ft 258 kts 126°
2026-04-25 18:19 64.06095 -21.84933 6205 ft 267 kts 124°
2026-04-25 18:19 64.05124 -21.81236 7435 ft 276 kts 127°
2026-04-25 18:19 64.04070 -21.77522 8777 ft 282 kts 126°
2026-04-25 18:19 64.02991 -21.73682 10039 ft 294 kts 126°
2026-04-25 18:20 64.01901 -21.69706 11354 ft 297 kts 125°
2026-04-25 18:20 64.00803 -21.65688 12678 ft 303 kts 125°
2026-04-25 18:20 63.99656 -21.61554 13756 ft 314 kts 125°
2026-04-25 18:20 63.98471 -21.57304 14839 ft 321 kts 125°
2026-04-25 18:21 63.97227 -21.53102 16050 ft 321 kts 133°
2026-04-25 18:21 63.95611 -21.49551 16962 ft 326 kts 145°
2026-04-25 18:21 63.93859 -21.46229 18039 ft 330 kts 145°
2026-04-25 18:21 63.92104 -21.42803 18979 ft 335 kts 144°
2026-04-25 18:22 63.90334 -21.39317 19880 ft 338 kts 144°
2026-04-25 18:22 63.89755 -21.38190 20168 ft 339 kts 144°
2026-04-25 18:22 63.86748 -21.32397 21618 ft 344 kts 144°
2026-04-25 18:22 63.84919 -21.28870 22460 ft 347 kts 144°
2026-04-25 18:23 63.83073 -21.25301 23287 ft 350 kts 144°
2026-04-25 18:23 63.81183 -21.21664 24025 ft 354 kts 144°
2026-04-25 18:23 63.79320 -21.18098 24638 ft 357 kts 144°
2026-04-25 18:23 63.77416 -21.14444 25242 ft 361 kts 143°
2026-04-25 18:24 63.75492 -21.10756 25833 ft 364 kts 144°
2026-04-25 18:24 63.73551 -21.07053 26459 ft 366 kts 143°
2026-04-25 18:24 63.71598 -21.03329 27032 ft 369 kts 143°
2026-04-25 18:24 63.69624 -20.99580 27566 ft 373 kts 143°
2026-04-25 18:25 63.67629 -20.95792 28101 ft 376 kts 143°
2026-04-25 18:25 63.65622 -20.91985 28686 ft 378 kts 143°